Flag for Belarus Weather past 2 weeks in Barysaw, Belarus

Now
36 °F

Passing clouds.


Feels Like: 33 °F
Forecast: 36 / 42 °F
Wind: 3 mph from West

Location: Minsk

Current Time: Apr 19, 2015 at 3:15:16 AM

Latest Report: Apr 19, 2015 at 2:30 AM


Visibility: N/A

Pressure: 29.83 "Hg

Humidity: 87%

Dew point: 32 °F

Location of BarysawLocation

Historic Weather in Barysaw — Graph

°F

Barysaw temperature yesterday

Maximum temperature yesterday: 45 °F (at 4:00 PM)
Minimum temperature yesterday: 34 °F (at 12:00 AM)
Average temperature yesterday: 38 °F

Past Weeks' High & Low Weather Summary

 TemperatureHumidityPressure
High66 °F (Apr 11, 3:30 PM)100% (Apr 4, 2:00 AM)30.27 "Hg (Apr 4, 2:00 AM)
Low25 °F (Apr 7, 6:30 AM)21% (Apr 11, 5:30 PM)29.36 "Hg (Apr 16, 6:30 AM)
Average42 °F72%29.91 "Hg
* Reported Apr 4 2:00 AM — Apr 19 2:00 AM, Barysaw, Weather by CustomWeather, © 2015

Note: Actual official high and low records may vary slightly from our data, if they occured in-between our weather recording intervals... More about our weather records

Advertising

Barysaw weather history for previous 24 hours

 ConditionsComfort  
Time TempWeatherWind HumidityBarometerVisibility
2:00 AM
Sun, Apr 19
36 °FClear.3 mph87%29.86 "Hg10 mi
1:30 AM36 °FPassing clouds.3 mph87%29.86 "HgN/A
1:00 AM36 °FPassing clouds.6 mph81%29.86 "HgN/A
12:30 AM37 °FPassing clouds.8 mph81%29.86 "HgN/A
12:00 AM39 °FPassing clouds.8 mph75%29.83 "HgN/A
11:30 PM
Sat, Apr 18
39 °FPassing clouds.8 mph70%29.83 "HgN/A
11:00 PM39 °FPassing clouds.10 mph70%29.83 "HgN/A
10:30 PM37 °FPassing clouds.6 mph75%29.83 "HgN/A
10:00 PM37 °FPassing clouds.3 mph75%29.83 "HgN/A
9:30 PM39 °FPassing clouds.8 mph65%29.83 "HgN/A
9:00 PM39 °FSunny.8 mph70%29.83 "Hg10 mi
8:30 PM41 °FSunny.10 mph61%29.80 "Hg10 mi
8:00 PM41 °FSunny.8 mph61%29.80 "Hg10 mi
7:30 PM43 °FBroken clouds.10 mph61%29.80 "HgN/A
7:00 PM43 °FBroken clouds.10 mph61%29.77 "HgN/A
6:30 PM43 °FSunny.10 mph57%29.77 "Hg10 mi
6:00 PM43 °FPartly sunny.15 mph66%29.77 "HgN/A
5:30 PM45 °FPartly sunny.3 mph71%29.77 "HgN/A
5:00 PM43 °FPartly sunny.6 mph66%29.77 "HgN/A
4:30 PM41 °FSprinkles. Partly sunny.6 mph76%29.77 "HgN/A
4:00 PM45 °FPartly sunny.15 mph76%29.77 "HgN/A
3:30 PM41 °FPartly sunny.6 mph87%29.77 "HgN/A
3:00 PM39 °FPartly sunny.8 mph87%29.77 "HgN/A
2:30 PM39 °FSprinkles. Partly sunny.13 mph81%29.80 "HgN/A
2:00 PM43 °FPartly sunny.10 mph76%29.77 "HgN/A
1:30 PM41 °FPartly sunny.10 mph81%29.80 "HgN/A
1:00 PM41 °FPartly sunny.10 mph87%29.80 "HgN/A
12:30 PM39 °FPartly sunny.15 mph93%29.80 "HgN/A
12:00 PM37 °FPartly sunny.10 mph100%29.80 "HgN/A
11:30 AM37 °FSprinkles. Partly sunny.10 mph93%29.77 "HgN/A
11:00 AM37 °FSprinkles. Partly sunny.8 mph93%29.77 "Hg6 mi
10:30 AM37 °FSprinkles. Partly sunny.8 mph93%29.77 "HgN/A
10:00 AM37 °FSprinkles. Partly sunny.10 mph93%29.77 "Hg5 mi
9:30 AM37 °FSprinkles. Partly sunny.8 mph93%29.77 "Hg3 mi
9:00 AM37 °FPartly sunny.8 mph93%29.77 "HgN/A
8:30 AM37 °FLow clouds.8 mph93%29.77 "HgN/A
8:00 AM36 °FDrizzle. Low clouds.8 mph100%29.77 "HgN/A
7:30 AM37 °FBroken clouds.8 mph93%29.77 "HgN/A
7:00 AM36 °FPassing clouds.3 mph100%29.74 "HgN/A
6:30 AM36 °FPassing clouds.3 mph93%29.74 "HgN/A
5:30 AM36 °FPartly cloudy.3 mph93%29.74 "HgN/A
5:00 AM34 °FPartly cloudy.3 mph100%29.74 "HgN/A
4:30 AM34 °FPassing clouds.1 mph100%29.74 "HgN/A
4:00 AM36 °FPassing clouds.6 mph93%29.74 "HgN/A
3:30 AM36 °FPassing clouds.3 mph93%29.74 "HgN/A
3:00 AM36 °FPassing clouds.3 mph100%29.74 "HgN/A
Weather by CustomWeather, © 2015

See weather overviewHow to use our weather pages